Weather History for Challis, ID

Change the Weather History Date:

Thursday, October 3, 2013

  Actual Average Record
Temperature  
Mean Temperature 38 °F 49 °F  
Max Temperature 43 °F 65 °F 84 °F (2010)
Min Temperature 32 °F 34 °F 22 °F (1973)
Degree Days  
Heating Degree Days 27 16  
Month to date heating degree days 73 46  
Since 1 July heating degree days 297 395  
Cooling Degree Days 0 0  
Month to date cooling degree days 0 0  
Year to date cooling degree days 420 248  
Moisture  
Dew Point 29 °F    
Average Humidity 73    
Maximum Humidity 92    
Minimum Humidity 54    
Precipitation  
Precipitation 0.20 in 0.02 in 0.43 in (1967)
Month to date precipitation 0.20 0.06  
Year to date precipitation 4.40 8.19  
Sea Level Pressure  
Sea Level Pressure 29.91 in    
Wind  
Wind Speed 8 mph (North)    
Max Wind Speed 18 mph    
Max Gust Speed 25 mph    
Visibility 7 miles    
Events Fog , Rain , Snow    
T = Trace of Precipitation, MM = Missing Value Source: NWS Daily Summary

Daily Weather History Graph

Daily Weather History Graph

Search for Another Location

Airport:

Trip Planner

Search our weather history database for the weather conditions in past years. The results will help you decide how hot, cold, wet, or windy it might be!

Date:

Astronomy

Oct. 03, 2013 Rise Set
Actual Time 7:37 AM MDT 7:13 PM MDT
Civil Twilight 7:08 AM MDT 7:42 PM MDT
Nautical Twilight 6:34 AM MDT 8:15 PM MDT
Astronomical Twilight 6:00 AM MDT 8:49 PM MDT
Moon 6:13 AM MDT (10/3) 6:24 PM MDT (10/3)
Length of Visible Light 12h 33m
Length of Day
11h 35m
Waning Crescent, 2% of the Moon is Illuminated
Oct 3
Waning Crescent
Oct 4
New
Oct 11
First Quarter
Oct 18
Full
Oct 26
Last Quarter

Hourly Weather History & Observations

Time (MDT) Temp. Windchill Dew Point Humidity Pressure Visibility Wind Dir Wind Speed Gust Speed Precip Events Conditions
12:55 AM 42.1 °F 39.2 °F 30.9 °F 65% 29.78 in 10.0 mi NW 4.6 mph - 0.00 in   Overcast
1:55 AM 41.0 °F 38.0 °F 30.9 °F 67% 29.77 in 10.0 mi NNW 4.6 mph - N/A   Overcast
2:55 AM 39.9 °F 35.1 °F 30.9 °F 70% 29.75 in 10.0 mi NNW 6.9 mph - N/A   Overcast
3:55 AM 39.9 °F - 30.9 °F 70% 29.75 in 10.0 mi Calm Calm - N/A   Overcast
4:55 AM 37.0 °F 31.0 °F 32.0 °F 82% 29.76 in 10.0 mi SSE 8.1 mph - 0.00 in   Overcast
5:55 AM 37.9 °F - 32.0 °F 79% 29.74 in 10.0 mi Calm Calm - 0.00 in Rain Light Rain
6:13 AM 37.4 °F 32.8 °F 33.8 °F 87% 29.80 in 7.0 mi North 5.8 mph - 0.00 in Rain Light Rain
6:22 AM 35.6 °F - 32.0 °F 87% 29.80 in 5.0 mi Calm Calm - 0.02 in Rain Rain
6:37 AM 35.6 °F 30.7 °F 30.2 °F 81% 29.80 in 4.0 mi NE 5.8 mph - 0.03 in Snow Light Snow
6:55 AM 34.0 °F 31.0 °F 30.9 °F 89% 29.79 in 6.0 mi NNW 3.5 mph - 0.05 in Snow Light Snow
7:00 AM 33.8 °F 30.8 °F 30.2 °F 87% 29.81 in 6.0 mi WNW 3.5 mph - 0.00 in Rain Light Rain
7:10 AM 33.8 °F 29.6 °F 30.2 °F 87% 29.82 in 6.0 mi West 4.6 mph - 0.01 in Snow Light Snow
7:26 AM 33.8 °F 30.8 °F 30.2 °F 87% 29.82 in 4.0 mi NW 3.5 mph - 0.02 in Snow Light Snow
7:34 AM 33.8 °F 30.8 °F 30.2 °F 87% 29.82 in 2.5 mi North 3.5 mph - 0.02 in Snow Light Snow
7:53 AM 33.8 °F - 30.2 °F 87% 29.82 in 1.2 mi Calm Calm - 0.05 in Snow Light Snow
7:55 AM 33.1 °F - 30.9 °F 92% 29.81 in 1.0 mi Calm Calm - 0.05 in Snow Light Snow
8:20 AM 32.0 °F - 30.2 °F 93% 29.82 in 0.5 mi Calm Calm - 0.03 in Fog , Snow Snow
8:39 AM 32.0 °F - 30.2 °F 93% 29.83 in 1.0 mi Calm Calm - 0.05 in Snow Light Snow
8:55 AM 32.0 °F - 30.0 °F 92% 29.83 in 1.0 mi Calm Calm - 0.06 in Snow Light Snow
9:04 AM 32.0 °F 28.7 °F 30.2 °F 93% 29.84 in 1.2 mi WNW 3.5 mph - 0.01 in Snow Light Snow
9:11 AM 33.8 °F 30.8 °F 30.2 °F 87% 29.85 in 3.0 mi North 3.5 mph - 0.01 in Snow Light Snow
9:18 AM 33.8 °F - 30.2 °F 87% 29.85 in 1.8 mi Calm Calm - 0.01 in Snow Light Snow
9:27 AM 33.8 °F 30.8 °F 30.2 °F 87% 29.85 in 3.0 mi NNE 3.5 mph - 0.02 in Snow Light Snow
10:06 AM 33.8 °F 27.7 °F 30.2 °F 87% 29.87 in 7.0 mi WNW 6.9 mph - 0.01 in Snow Light Snow
10:18 AM 35.6 °F 29.9 °F 30.2 °F 81% 29.87 in 10.0 mi NW 6.9 mph - 0.01 in   Overcast
10:55 AM 39.0 °F 32.8 °F 30.0 °F 70% 29.87 in 10.0 mi NNW 9.2 mph - 0.01 in   Overcast
11:55 AM 39.9 °F 33.4 °F 28.9 °F 65% 29.91 in 10.0 mi NNE 10.4 mph - N/A   Overcast
12:55 PM 39.9 °F 33.9 °F 28.9 °F 65% 29.95 in 10.0 mi NNE 9.2 mph - N/A   Overcast
1:55 PM 39.9 °F 32.9 °F 28.9 °F 65% 29.98 in 10.0 mi NNE 11.5 mph 19.6 mph N/A   Overcast
2:55 PM 39.9 °F 32.5 °F 27.0 °F 60% 30.03 in 10.0 mi NNE 12.7 mph 19.6 mph N/A   Overcast
3:55 PM 39.9 °F 32.1 °F 27.0 °F 60% 30.06 in 10.0 mi NNE 13.8 mph 23.0 mph N/A   Overcast
4:55 PM 39.0 °F 31.8 °F 25.0 °F 57% 30.11 in 10.0 mi NNE 11.5 mph - N/A   Overcast
5:55 PM 39.0 °F 31.0 °F 25.0 °F 57% 30.13 in 10.0 mi NNE 13.8 mph 20.7 mph N/A   Mostly Cloudy
6:55 PM 37.9 °F 30.0 °F 24.1 °F 57% 30.18 in 10.0 mi NNE 12.7 mph - N/A   Overcast
7:55 PM 37.9 °F 32.1 °F 24.1 °F 57% 30.22 in 10.0 mi North 8.1 mph - N/A   Overcast
8:55 PM 37.0 °F 29.3 °F 23.0 °F 57% 30.25 in 10.0 mi NNW 11.5 mph - N/A   Overcast
10:55 PM 36.0 °F 28.0 °F 21.0 °F 55% 30.26 in 10.0 mi NNW 11.5 mph - N/A   Mostly Cloudy
11:55 PM 35.1 °F 26.4 °F 21.0 °F 57% 30.27 in 10.0 mi North 12.7 mph - N/A   Partly Cloudy